QZS-4 (QZSS/PRN 195)

Last updated on Sun Apr 12 2026 00:03:34 GMT+0000 (Coordinated Universal Time)

1 42965U 17062A 26100.54849544 -.00000299 00000+0 00000+0 0 9993 2 42965 40.1494 344.3490 0745886 270.5343 281.8232 1.00270912 31124
UTC large
Height (km)
Speed (km/s)
/
Latitude / Longitude
Inclination (degrees)
Orbital Period (minutes)
Azimuth
Elevation
Range (km)
Doppler Factor

Next 0 passes for location: London (51.5072 / 0.1276)

Sorry there are no passes over London.
QZS-4 (QZSS/PRN 195)